Location: George Washington National Forest Helicopter Landing Site
(38.6463°N, 79.0851°W)
Time: 18:55:15
(UTC-04:00)

Tiros 1 despin weight - Pass Details

Date: 21 August 2019
Orbit: 594 x 642 km, 48.2° (Epoch: 17 September)

Event Time Altitude Azimuth Distance (km) Brightness Sun altitude
Rises 23:24:53 0° 202° (SSW) 2,812 - -32.8°
Reaches altitude 10° 23:27:29 10° 188° (S) 1,918 - -33.1°
Maximum altitude 23:31:01 24° 135° (SE) 1,246 - -33.5°
Drops below altitude 10° 23:34:36 10° 81° (E) 1,943 - -33.8°
Sets 23:37:14 0° 67° (ENE) 2,858 - -34.1°
